Location: Tierra Monte Subdivision
(35.2092°N, 106.4864°W)
Time: 03:07:08
(UTC+00:00)

Cosmos 2237 Rocket - Pass Details

Date: 30 March 2020
Orbit: 833 x 851 km, 71.0° (Epoch: 29 May)

Event Time Altitude Azimuth Distance (km) Brightness Sun altitude
Rises 01:55:34 0° 212° (SSW) 3,364 5.6 -6.9°
Reaches altitude 10° 01:58:02 10° 216° (SW) 2,434 5.0 -7.4°
Maximum altitude 02:03:30 55° 294° (WNW) 992 3.0 -8.5°
Drops below altitude 10° 02:09:01 10° 12° (NNE) 2,451 4.6 -9.6°
Sets 02:11:31 0° 17° (NNE) 3,390 5.3 -10.1°
